DW5310 Weather Reports


time (UTC)temp
C
wind
direction
speed
KPH
gust
KPH
rain 1hr
cm
rain 24hr
cm
rain mn
cm
humidity
%
barometer
mb
20260904141006 11 35 0.0 0.0 0.00 0.61 0.15 97 1011.5
20260904140505 11 35 0.0 0.0 0.00 0.61 0.15 96 1011.5
20260904140006 11 35 0.0 0.0 0.00 0.61 0.15 96 1011.5
20260904134506 11 35 0.0 0.0 0.00 0.61 0.15 96 1010.5
20260904134005 11 58 0.0 0.0 0.00 0.61 0.15 96 1010.5
20260904133505 11 35 0.0 0.0 0.00 0.61 0.15 96 1010.5
20260904133006 11 35 0.0 0.0 0.00 0.61 0.15 96 1010.5
20260904132506 11 35 0.0 8.0 0.00 0.61 0.15 96 1010.5
20260904132005 11 35 1.6 8.0 0.00 0.61 0.15 96 1010.5
20260904131506 11 326 0.0 4.8 0.00 0.61 0.15 96 1010.5
20260904131006 11 51 1.6 8.0 0.00 0.61 0.15 96 1010.5
20260904130506 11 147 1.6 8.0 0.00 0.61 0.15 96 1010.5
20260904130005 11 125 1.6 4.8 0.00 0.61 0.15 95 1010.5
20260904125506 11 148 3.2 4.8 0.00 0.61 0.15 95 1009.5
20260904125005 11 282 0.0 0.0 0.00 0.61 0.15 95 1009.5
20260904124506 11 282 0.0 0.0 0.00 0.61 0.15 95 1009.5
20260904124005 11 282 0.0 0.0 0.00 0.61 0.15 95 1009.5
20260904123506 11 282 0.0 0.0 0.00 0.61 0.15 94 1009.5
20260904122505 11 282 0.0 0.0 0.00 0.61 0.15 94 1009.5
20260904122006 11 282 0.0 0.0 0.00 0.61 0.15 93 1009.5
20260904121506 11 282 0.0 0.0 0.00 0.61 0.15 93 1009.5
20260904121006 11 282 0.0 3.2 0.00 0.61 0.15 93 1009.5
20260904120506 11 282 0.0 8.0 0.00 0.61 0.15 93 1009.5
20260904120006 11 305 3.2 8.0 0.00 0.61 0.15 93 1009.5
20260904115506 11 137 1.6 8.0 0.00 0.61 0.15 93 1009.5
20260904114005 11 42 0.0 8.0 0.15 0.61 0.15 92 1009.5
20260904113505 11 192 0.0 9.7 0.15 0.61 0.15 92 1009.5
20260904113006 11 153 0.0 9.7 0.15 0.61 0.15 92 1009.5
20260904112005 11 305 0.0 3.2 0.15 0.61 0.15 91 1009.5
20260904111506 11 305 0.0 3.2 0.15 0.61 0.15 91 1009.5
20260904111006 11 305 1.6 9.7 0.15 0.61 0.15 91 1009.5
20260904110505 11 311 1.6 9.7 0.15 0.61 0.15 91 1009.5
20260904110005 11 100 1.6 11.3 0.15 0.61 0.15 91 1009.5
20260904105506 11 131 1.6 16.1 0.15 0.61 0.15 91 1009.5
20260904105006 11 113 4.8 16.1 0.15 0.61 0.15 91 1009.5
20260904104006 11 305 0.0 0.0 0.00 0.48 0.00 91 1009.5
20260904103506 11 305 0.0 0.0 0.00 0.48 0.00 91 1009.5
20260904103005 11 305 0.0 0.0 0.00 0.48 0.00 91 1009.5
20260904102505 11 305 0.0 0.0 0.00 0.48 0.00 91 1009.5
20260904102006 11 305 0.0 0.0 0.00 0.48 0.00 91 1009.5
20260904101505 11 305 0.0 0.0 0.00 0.48 0.00 91 1009.5
20260904101005 11 305 0.0 0.0 0.00 0.48 0.00 91 1009.5
20260904100505 11 305 0.0 0.0 0.00 0.48 0.00 91 1009.5
20260904100005 11 27 0.0 0.0 0.00 0.48 0.00 91 1009.5
20260904095505 11 215 0.0 0.0 0.00 0.48 0.00 91 1008.5
20260904095006 11 35 0.0 0.0 0.00 0.48 0.00 92 1008.5
20260904094506 11 35 0.0 0.0 0.00 0.48 0.00 92 1008.5
20260904094005 12 35 0.0 0.0 0.00 0.48 0.00 91 1008.5
20260904093506 12 35 0.0 3.2 0.00 0.48 0.00 91 1008.5
20260904093005 12 35 0.0 3.2 0.00 0.48 0.00 91 1008.5
20260904092005 12 35 0.0 4.8 0.00 0.48 0.00 92 1008.5
20260904091505 12 35 1.6 4.8 0.00 0.48 0.00 92 1008.5
20260904091005 12 282 0.0 3.2 0.00 0.48 0.00 92 1008.5
20260904090505 11 282 0.0 8.0 0.00 0.48 0.00 93 1008.5
20260904090006 11 288 0.0 8.0 0.00 0.48 0.00 93 1008.5
20260904085005 11 305 0.0 0.0 0.00 0.48 0.00 93 1008.5
20260904084505 11 305 0.0 0.0 0.00 0.48 0.00 93 1008.5
20260904084005 11 305 0.0 0.0 0.00 0.48 0.00 93 1009.5
20260904083505 12 305 0.0 0.0 0.00 0.48 0.00 92 1009.5
20260904083005 12 305 0.0 0.0 0.00 0.48 0.00 92 1009.5
20260904082005 12 102 0.0 0.0 0.00 0.48 0.00 92 1008.5
20260904081005 12 63 0.0 3.2 0.00 0.48 0.00 93 1009.5
20260904080505 12 176 0.0 0.0 0.00 0.48 0.00 93 1009.5
20260904080005 12 35 0.0 0.0 0.00 0.48 0.00 93 1009.5
20260904075505 12 35 0.0 8.0 0.00 0.48 0.00 93 1008.5
20260904074505 12 99 4.8 9.7 0.00 0.58 0.00 94 1008.5
20260904074005 12 102 0.0 3.2 0.00 0.58 0.00 94 1008.5
20260904073005 12 68 0.0 0.0 0.00 0.58 0.00 94 1008.5
20260904072006 12 91 0.0 0.0 0.00 0.58 0.00 94 1008.5
20260904071505 12 84 0.0 0.0 0.00 0.58 0.00 94 1008.5
20260904070505 12 102 0.0 0.0 0.00 0.58 0.00 94 1008.5
20260904070006 12 102 0.0 0.0 0.00 0.58 0.00 94 1008.5
20260904065505 12 102 0.0 0.0 0.00 0.58 0.58 93 1008.5
20260904065005 12 102 0.0 0.0 0.00 0.58 0.58 93 1008.5
20260904064505 12 102 0.0 0.0 0.00 0.58 0.58 93 1008.5
20260904064005 12 102 0.0 0.0 0.00 0.58 0.58 93 1009.5
20260904063505 12 102 0.0 0.0 0.00 0.58 0.58 93 1009.5
20260904062005 12 102 0.0 0.0 0.00 0.58 0.58 92 1008.5
20260904061504 12 102 0.0 0.0 0.00 0.58 0.58 92 1008.5
20260904061004 12 102 0.0 0.0 0.00 0.58 0.58 92 1009.5
20260904055504 12 102 0.0 0.0 0.00 0.58 0.58 92 1009.5
20260904054505 12 109 0.0 0.0 0.00 0.58 0.58 92 1009.5
20260904054005 12 148 0.0 0.0 0.00 0.58 0.58 92 1009.5
20260904053505 12 148 0.0 0.0 0.00 0.58 0.58 92 1009.5
20260904053005 12 96 0.0 0.0 0.00 0.58 0.58 91 1009.5
20260904052504 12 129 0.0 0.0 0.00 0.58 0.58 92 1009.5
20260904052005 12 165 0.0 0.0 0.00 0.58 0.58 92 1009.5
20260904051505 12 144 0.0 0.0 0.00 0.58 0.58 91 1009.5
20260904051005 12 164 0.0 0.0 0.00 0.58 0.58 91 1009.5
20260904050505 12 148 0.0 3.2 0.00 0.58 0.58 92 1009.5
20260904050005 12 125 0.0 4.8 0.00 0.58 0.58 92 1009.5
20260904045505 12 139 0.0 4.8 0.00 0.58 0.58 92 1009.5
20260904045005 12 170 0.0 4.8 0.00 0.58 0.58 92 1009.5
20260904044505 12 192 0.0 0.0 0.00 0.58 0.58 92 1009.5
20260904044005 12 192 0.0 0.0 0.00 0.58 0.58 92 1009.5
20260904043504 12 192 0.0 3.2 0.00 0.58 0.58 92 1009.5
20260904043005 12 192 0.0 3.2 0.00 0.58 0.58 93 1009.5
20260904042005 12 282 0.0 4.8 0.00 0.58 0.58 93 1009.5
20260904041005 12 282 0.0 0.0 0.00 0.58 0.58 93 1009.5
20260904040505 12 282 0.0 3.2 0.00 0.58 0.58 93 1009.5
20260904040004 12 282 0.0 3.2 0.00 0.58 0.58 93 1009.5
20260904035505 12 35 0.0 3.2 0.00 0.58 0.58 93 1009.5
20260904035005 12 102 0.0 3.2 0.00 0.58 0.58 93 1009.5
20260904034504 12 103 0.0 0.0 0.00 0.58 0.58 93 1009.5
20260904033505 12 131 0.0 0.0 0.00 0.58 0.58 93 1008.5
20260904033004 12 80 0.0 0.0 0.00 0.58 0.58 93 1008.5
20260904032505 12 80 0.0 0.0 0.00 0.58 0.58 93 1008.5
20260904032006 12 80 0.0 0.0 0.00 0.58 0.58 93 1008.5
20260904031504 12 80 0.0 0.0 0.00 0.58 0.58 93 1008.5
20260904031005 12 80 0.0 0.0 0.00 0.58 0.58 92 1008.5
20260904030504 12 80 0.0 0.0 0.00 0.58 0.58 92 1008.5
20260904030005 12 80 0.0 0.0 0.00 0.58 0.58 92 1008.5
20260904025505 12 80 0.0 0.0 0.00 0.58 0.58 92 1008.5
20260904025004 12 80 0.0 0.0 0.00 0.58 0.58 92 1008.5
20260904024505 12 80 0.0 3.2 0.00 0.58 0.58 92 1008.5
20260904024004 12 80 1.6 4.8 0.00 0.58 0.58 92 1008.5
20260904023505 12 95 1.6 9.7 0.00 0.58 0.58 92 1008.5
20260904022007 13 121 3.2 9.7 0.00 0.58 0.58 92 1008.5
20260904021505 13 119 1.6 3.2 0.00 0.58 0.58 92 1008.5
20260904021005 13 125 1.6 9.7 0.00 0.58 0.58 92 1008.5
20260904020004 13 128 1.6 9.7 0.00 0.58 0.58 92 1008.5
20260904015504 13 38 0.0 0.0 0.00 0.58 0.58 92 1008.5
20260904015005 13 43 0.0 0.0 0.00 0.58 0.58 92 1008.5
20260904014504 13 102 0.0 0.0 0.00 0.58 0.58 92 1008.5
20260904014004 13 98 0.0 8.0 0.00 0.58 0.58 92 1008.5
20260904013504 13 102 3.2 8.0 0.00 0.58 0.58 92 1008.5
20260904013005 13 118 3.2 9.7 0.00 0.58 0.58 92 1008.5
20260904012505 13 134 6.4 16.1 0.00 0.58 0.58 92 1008.5
20260904012005 13 125 4.8 16.1 0.00 0.58 0.58 92 1008.5
20260904011504 13 157 4.8 12.9 0.00 0.58 0.58 92 1008.5
20260904011005 13 81 1.6 9.7 0.00 0.58 0.58 92 1008.5
20260904010504 13 124 4.8 9.7 0.00 0.58 0.58 91 1008.5
20260904010004 13 282 0.0 0.0 0.00 0.58 0.58 91 1008.5
20260904005504 13 35 0.0 3.2 0.00 0.58 0.58 91 1008.5
20260904005004 13 192 0.0 3.2 0.00 0.58 0.58 91 1008.5
20260904004504 13 179 0.0 3.2 0.00 0.58 0.58 91 1008.5
20260904004004 13 90 0.0 3.2 0.00 0.58 0.58 91 1008.5
20260904003504 13 208 0.0 4.8 0.00 0.58 0.58 91 1008.5
20260904002504 13 90 3.2 9.7 0.00 0.58 0.58 92 1008.5
20260904002004 13 149 1.6 9.7 0.00 0.58 0.58 92 1008.5
20260904001504 13 193 1.6 9.7 0.13 0.58 0.58 92 1008.5
20260904001004 13 224 0.0 4.8 0.13 0.58 0.58 91 1008.5
20260904000504 13 260 3.2 4.8 0.13 0.58 0.58 91 1008.5
20260904000004 13 238 0.0 3.2 0.13 0.58 0.58 91 1008.5
20260903235504 13 248 1.6 8.0 0.13 0.58 0.58 90 1008.5
20260903234504 12 190 1.6 8.0 0.13 0.74 0.58 90 1008.5
20260903234004 12 260 1.6 4.8 0.13 0.86 0.58 88 1008.5
20260903233504 12 162 0.0 9.7 0.13 0.86 0.58 88 1008.5
20260903233003 12 140 1.6 9.7 0.13 0.86 0.58 88 1008.5
20260903232004 13 274 4.8 9.7 0.13 0.97 0.58 85 1009.5
20260903231504 13 249 3.2 9.7 0.00 0.86 0.48 84 1009.5
20260903230504 13 260 0.0 12.9 0.00 0.86 0.48 83 1009.5
20260903230004 13 233 3.2 12.9 0.00 0.86 0.48 81 1009.5
20260903225504 14 229 1.6 12.9 0.00 0.86 0.48 80 1008.5
20260903225004 15 282 1.6 12.9 0.00 0.86 0.48 78 1008.5
20260903224504 15 260 4.8 11.3 0.00 0.86 0.48 77 1008.5
20260903224004 16 282 0.0 11.3 0.00 0.86 0.48 77 1008.5
20260903223504 16 280 3.2 11.3 0.00 0.86 0.48 77 1008.5
20260903222504 16 258 3.2 9.7 0.00 0.86 0.48 76 1008.5
20260903222003 16 231 1.6 9.7 0.00 0.86 0.48 76 1008.5
20260903221503 16 257 3.2 9.7 0.00 0.86 0.48 75 1008.5
20260903220504 16 246 3.2 12.9 0.00 0.86 0.48 76 1008.5
20260903215504 15 145 4.8 20.9 0.00 0.86 0.48 75 1008.5
20260903215004 15 199 3.2 20.9 0.00 0.86 0.48 76 1008.5
20260903214505 15 145 9.7 20.9 0.00 0.86 0.48 77 1008.5
20260903214004 15 203 4.8 11.3 0.00 0.86 0.48 77 1008.5
20260903213504 15 233 6.4 11.3 0.00 0.86 0.48 77 1008.5
20260903212504 15 207 8.0 25.7 0.00 0.86 0.48 78 1009.5
20260903212004 15 162 11.3 25.7 0.00 0.86 0.48 78 1009.5
20260903211504 15 179 14.5 25.7 0.00 0.86 0.48 77 1009.5
20260903211003 15 194 9.7 25.7 0.00 0.86 0.48 77 1008.5
20260903210504 15 140 11.3 24.1 0.00 0.86 0.48 77 1008.5
20260903210004 15 136 9.7 32.2 0.00 0.86 0.48 79 1008.5
20260903205504 15 161 11.3 32.2 0.00 0.86 0.48 80 1008.5
20260903205004 15 98 11.3 33.8 0.00 0.86 0.48 81 1008.5
20260903204504 15 168 20.9 33.8 0.00 0.86 0.48 81 1008.5
20260903203504 15 195 9.7 22.5 0.00 0.86 0.48 83 1008.5
20260903203004 15 139 9.7 24.1 0.00 0.86 0.48 84 1008.5
20260903202503 15 154 9.7 24.1 0.00 0.86 0.48 84 1009.5
20260903202003 15 156 8.0 24.1 0.00 0.97 0.48 85 1009.5
20260903201507 15 171 9.7 24.1 0.00 0.97 0.48 84 1009.5
20260903201007 15 145 11.3 32.2 0.00 0.97 0.48 85 1009.5
20260903195507 14 208 14.5 27.4 0.00 1.09 0.48 87 1008.5
20260903195007 14 161 12.9 49.9 0.00 1.09 0.48 87 1008.5
20260903194507 14 151 16.1 49.9 0.00 1.22 0.48 88 1008.5
20260903194007 15 173 12.9 40.2 0.00 1.22 0.48 89 1008.5
20260903193006 14 141 17.7 40.2 0.13 1.35 0.48 91 1008.5
20260903192506 14 182 12.9 32.2 0.25 1.35 0.48 92 1009.5
20260903192007 14 171 16.1 32.2 0.25 1.35 0.48 93 1009.5
20260903191507 13 177 16.1 37.0 0.25 1.35 0.48 93 1009.5
20260903191007 13 148 14.5 37.0 0.25 1.47 0.48 93 1009.5
20260903190507 13 175 11.3 25.7 0.25 1.47 0.48 93 1009.5
20260903190006 13 139 8.0 32.2 0.25 1.47 0.48 93 1009.5
20260903185507 13 159 11.3 32.2 0.25 1.47 0.48 92 1009.5
20260903185006 13 171 4.8 14.5 0.25 1.47 0.48 92 1009.5
20260903184507 13 186 4.8 12.9 0.25 1.47 0.48 90 1009.5
20260903184007 13 215 3.2 16.1 0.25 1.47 0.48 89 1009.5
20260903183507 13 192 6.4 29.0 0.25 1.47 0.48 86 1009.5
20260903183007 14 214 9.7 29.0 0.13 1.35 0.36 83 1009.5
20260903182507 15 181 14.5 29.0 0.00 1.22 0.23 82 1008.5
20260903182007 15 172 8.0 19.3 0.00 1.35 0.23 84 1008.5
20260903180507 15 161 9.7 24.1 0.00 1.35 0.23 89 1008.5
20260903175507 15 144 9.7 20.9 0.00 1.35 0.23 91 1008.5
20260903175007 15 196 8.0 20.9 0.00 1.35 0.23 91 1008.5
20260903174507 15 146 4.8 20.9 0.00 1.35 0.23 92 1008.5
20260903174006 15 88 8.0 20.9 0.00 1.35 0.23 93 1008.5
20260903173006 14 113 4.8 20.9 0.00 1.35 0.23 94 1008.5
20260903172507 14 98 6.4 20.9 0.00 1.35 0.23 94 1008.5
20260903172006 13 100 3.2 12.9 0.00 1.35 0.23 94 1008.5
20260903171507 13 109 8.0 12.9 0.00 1.35 0.23 95 1008.5
20260903171007 13 113 1.6 11.3 0.00 1.35 0.23 95 1009.5
20260903170506 13 144 1.6 11.3 0.00 1.35 0.23 95 1009.5
20260903170006 13 124 3.2 9.7 0.00 1.35 0.23 95 1009.5
20260903165506 13 138 3.2 11.3 0.00 1.35 0.23 95 1009.5
20260903165006 13 85 0.0 11.3 0.00 1.35 0.23 95 1009.5
20260903164006 13 128 3.2 11.3 0.00 1.35 0.23 95 1008.5
20260903163507 12 161 3.2 11.3 0.00 1.35 0.23 96 1008.5
20260903162507 12 122 3.2 8.0 0.00 1.35 0.23 96 1009.5
20260903162007 12 115 0.0 4.8 0.00 1.35 0.23 96 1009.5
20260903161506 12 85 0.0 4.8 0.00 1.35 0.23 95 1009.5
20260903161006 12 91 0.0 0.0 0.00 1.35 0.23 95 1009.5
20260903160006 12 192 0.0 8.0 0.00 1.35 0.23 95 1009.5
20260903155506 12 153 0.0 20.9 0.00 1.35 0.23 95 1009.5
20260903155006 12 148 6.4 20.9 0.00 1.35 0.23 95 1009.5
20260903154506 12 133 4.8 20.9 0.00 1.35 0.23 95 1009.5
20260903154006 12 135 11.3 20.9 0.00 1.35 0.23 95 1009.5
20260903152506 12 127 14.5 24.1 0.00 1.35 0.23 95 1009.5
20260903152006 12 157 11.3 27.4 0.13 1.35 0.23 95 1009.5
20260903151506 12 142 9.7 27.4 0.13 1.35 0.23 95 1009.5
20260903151006 12 129 11.3 33.8 0.13 1.35 0.23 95 1008.5
20260903150506 12 149 12.9 33.8 0.13 1.35 0.23 95 1008.5
20260903150007 12 146 14.5 24.1 0.13 1.35 0.23 95 1008.5
20260903145509 12 153 14.5 25.7 0.13 1.35 0.23 95 1008.5
20260903145006 12 171 12.9 25.7 0.13 1.35 0.23 95 1008.5
20260903144006 12 138 9.7 24.1 0.13 1.35 0.23 94 1008.5
20260903143506 12 168 11.3 29.0 0.13 1.35 0.23 93 1008.5
20260903143006 12 146 14.5 29.0 0.13 1.35 0.23 93 1008.5
20260903142506 12 152 14.5 27.4 0.13 1.35 0.23 93 1008.5
20260903142007 12 137 11.3 32.2 0.00 1.22 0.13 92 1008.5